This is the latest recevied weather packets stored in our database for station/object W8AN. If no packets are shown the sender has not sent any weather packets the latest 10 day(s).
| Time | Temp. | Humidity | Pressure | Rain* | Wind** | Luminosity | Snow |
|---|---|---|---|---|---|---|---|
| 1777898652 | 13.89° C | 64% | 4261.7 hPa | 0 mm | - | 251 W/m² | - |
| 1777898349 | 13.33° C | 64% | 4261.7 hPa | 0 mm | - | 243 W/m² | - |
| 1777898048 | 13.33° C | 64% | 4261.9 hPa | 0 mm | - | 231 W/m² | - |
| 1777897743 | 13.33° C | 64% | 4261.8 hPa | 0 mm | - | 211 W/m² | - |
| 1777897440 | 12.78° C | 64% | 4261.9 hPa | 0 mm | - | 196 W/m² | - |
| 1777897136 | 12.78° C | 64% | 4261.7 hPa | 0 mm | - | 181 W/m² | - |
| 1777896832 | 12.78° C | 65% | 4262 hPa | 0 mm | - | 163 W/m² | - |
| 1777896530 | 12.78° C | 66% | 4261.7 hPa | 0 mm | - | 147 W/m² | - |
| 1777896226 | 12.22° C | 65% | 4261.9 hPa | 0 mm | - | 136 W/m² | - |
| 1777895924 | 12.22° C | 66% | 4262 hPa | 0 mm | - | 114 W/m² | - |
| 1777895622 | 12.22° C | 66% | 4261.8 hPa | 0 mm | - | 111 W/m² | - |
| 1777895319 | 11.67° C | 66% | 4261.9 hPa | 0 mm | - | 98 W/m² | - |
| 1777895017 | 11.67° C | 67% | 4261.8 hPa | 0 mm | - | 60 W/m² | - |
| 1777894714 | 11.67° C | 67% | 4261.7 hPa | 0 mm | - | 48 W/m² | - |
| 1777894410 | 11.11° C | 67% | 4261.5 hPa | 0 mm | - | 45 W/m² | - |
| 1777894108 | 11.11° C | 67% | 4261.7 hPa | 0 mm | - | 41 W/m² | - |
| 1777893805 | 11.11° C | 68% | 4261.6 hPa | 0 mm | - | 37 W/m² | - |
| 1777893501 | 11.11° C | 68% | 4261.6 hPa | 0 mm | - | 34 W/m² | - |
| 1777893197 | 11.11° C | 68% | 4261.5 hPa | 0 mm | - | 30 W/m² | - |
| 1777892894 | 10.56° C | 67% | 4261.5 hPa | 0 mm | - | 27 W/m² | - |
| 1777892591 | 10.56° C | 68% | 4261.5 hPa | 0 mm | - | 24 W/m² | - |
| 1777892286 | 10.56° C | 68% | 4261.9 hPa | 0 mm | - | 20 W/m² | - |
| 1777891983 | 10.56° C | 69% | 4261.7 hPa | 0 mm | - | 17 W/m² | - |
| 1777891681 | 10.56° C | 68% | 4261.6 hPa | 0 mm | - | 13 W/m² | - |
| 1777891376 | 10.56° C | 68% | 4261.5 hPa | 0 mm | - | 10 W/m² | - |
* Rain latest hour (hover to see other rain measurements)
** Current wind speed in m/s (hover to see current wind gust speed)